Tracking 29892 objects as of 21-Nov-2024
HD Live streaming from Space Station
objects crossing your sky now

CZ-3A R/B

Track CZ-3A R/B now!
10-day predictions


NORAD ID: 30324
Int'l Code: 2007-003B
Perigee: 297.9 km
Apogee: 18,752.8 km
Inclination: 24.6 °
Period: 332.4 minutes
Semi major axis: 15896 km
RCS: 10.0689 m2 (large)
Launch date: February 2, 2007
Source: People's Republic of China (PRC)
Launch site: Xichang Space Center, China (XSC)

Note: This is a ROCKET BODY
Your satellite tracking list
Your tracking list is empty




NASA's NSSDC Master Catalog

Two Line Element Set (TLE):
1 30324U 07003B   24325.38719169  .00005579  00000-0  11627-2 0  9997
2 30324  24.6327 112.2522 5804783 348.7579   2.3844  4.33169783208433
Source of the keplerian elements: AFSPC